Location: Kerb�bon
(47.7970°N, 3.3487°W)
Time: 11:46:43
(UTC+00:00)

Cosmos 990 Rocket - Pass Details

Date: 12 May 2021
Orbit: 746 x 769 km, 74.0° (Epoch: 18 June)

Event Time Altitude Azimuth Distance (km) Brightness Sun altitude
Exits shadow 22:19:51 30° 192° (SSW) 1,354 4.9 -19.4°
Maximum altitude 22:22:31 79° 111° (ESE) 787 3.9 -19.6°
Drops below altitude 10° 22:27:47 10° 25° (NNE) 2,319 7.0 -20.0°
Sets 22:30:10 0° 24° (NNE) 3,251 7.9 -20.2°
